Weather in King Williams Town

South Africa     32°52′55″S   27°24′07″E
В апреле 2022 года жителям России запретили посещать сайт meteo.paraplan.net по решению Генеральной прокуратуры. Аудитория сайта уменьшилась в 10 раз. Владельцы сайта не видят смысла в поддержке погодного сервера в таких условиях. Сайт будет закрыт в октябре.
temp.,
°C
wind,
m/s
gust,
m/s
humid.,
%
clouds,
%
prec.,
mm/h
press.,
hPa
HPBL,
m
25 september, sun
sun2523:00+17ene51292100 0.0 1013501
02:00+18ne61280100 0.0 1010812
05:00+16ene369589 0.0 1008251
08:00+20wsw36715 0.0 1010331
11:00+31w392579 0.0 10081560
14:00+35nw581542 0.0 10043835
17:00+16ssw398799 0.0 1007238
20:00+18wsw017622 0.0 1012175
26 september, mon
mon2623:00+16sw257621 0.0 1013220
02:00+16nnw1175100 0.0 101239
05:00+15sw1177100 0.0 101311
08:00+18sw3578100 0.0 1016565
11:00+21se336297 0.1 1015970
14:00+21ese5569100 0.1 1014801
17:00+18ene598965 1.4 1014711
20:00+17ene5109390 1.7 1018665
27 september, tue
tue2723:00+17ene51295100 0.2 1019888
02:00+17e51195100 0.3 1019946
05:00+17ene51095100 0.6 10201062
08:00+17e61295100 1.8 10221071
11:00+18ene61194100 0.4 10221091
14:00+18e61296100 0.7 1020934
17:00+18e61297100 0.4 10201004
20:00+19ene61396100 0.6 10211015
28 september, wed
wed2823:00+19ene71596100 0.2 1020782
02:00+19ssw1291100 0.6 102139
05:00+18ene2297100 3.3 102266
08:00+21nne3785100 5.3 1023337
11:00+24ne5771100 1.2 1021519
14:00+26ene145897 1.2 1018475
17:00+26e2359100 0.1 101797
20:00+20sse1292100 0.7 102092
29 september, thu
thu2923:00+19nne3693100 1.6 1020254
02:00+18ne4896100 4.9 1018417
05:00+19nne6138496 0.4 1015564
08:00+23n387034 0.4 1014549
11:00+23wsw566720 0.0 1015850
14:00+22sw887270 0.7 1014916
17:00+18sw5993100 0.8 1015724
20:00+17sw4797100 1.9 1017534